TDRS 7                  
1 23613U 95035B   19260.78504856 -.00000200  00000-0  00000-0 0  9991
2 23613  14.2365   6.9536 0027593  26.0871 330.9047  1.00270135 88536
IUS R/B(1)              
1 23614U 95035C   19260.69717609  .00000079  00000-0  41226-3 0  9995
2 23614  26.2227  37.1065 7056061 177.6615 189.8256  2.54082989214237
IUS R/B(2)              
1 23615U 95035D   19260.73660510 -.00000354  00000-0  00000+0 0  9997
2 23615  17.0002   5.0433 0008937  86.9978 272.2749  1.00505904 88764